Location: Carnetin
(48.9010°N, 2.7059°E)
Time: 19:30:21
(UTC+00:00)

Cosmos 1825 - Pass Details

Date: 07 June 2022
Orbit: 496 x 499 km, 82.5° (Epoch: 24 June)

Event Time Altitude Azimuth Distance (km) Brightness Sun altitude
Exits shadow 02:26:56 12° 192° (SSW) 1,573 4.1 -10.1°
Maximum altitude 02:30:21 82° 279° (W) 509 2.1 -9.7°
Drops below altitude 10° 02:34:06 10° 8° (N) 1,710 5.9 -9.4°
Sets 02:36:14 0° 9° (N) 2,600 6.9 -9.1°
